| time (UTC) | temp C | wind direction | speed KPH | gust KPH | rain 1hr cm | rain 24hr cm | rain mn cm | humidity % | barometer mb |
| 20260509034730 | 12 | 135 | 0.0 | 0.0 | 0.00 | 0.00 | 0.00 | 82 | 1006.8 |
| 20260509034228 | 12 | 134 | 0.0 | 0.0 | 0.00 | 0.00 | 0.00 | 82 | 1006.9 |
| 20260509033725 | 12 | 131 | 0.0 | 0.0 | 0.00 | 0.00 | 0.00 | 82 | 1007.0 |
| 20260509033222 | 12 | 130 | 0.0 | 0.0 | 0.00 | 0.00 | 0.00 | 81 | 1006.9 |
| 20260509032719 | 12 | 130 | 0.0 | 0.0 | 0.00 | 0.00 | 0.00 | 81 | 1006.9 |
| 20260509032216 | 12 | 129 | 0.0 | 0.0 | 0.00 | 0.00 | 0.00 | 81 | 1007.1 |
| 20260509031713 | 12 | 135 | 0.0 | 0.0 | 0.00 | 0.00 | 0.00 | 81 | 1007.1 |
| 20260509031211 | 12 | 132 | 0.0 | 0.0 | 0.00 | 0.00 | 0.00 | 81 | 1007.1 |
| 20260509030709 | 12 | 133 | 0.0 | 0.0 | 0.00 | 0.00 | 0.00 | 81 | 1007.1 |
| 20260509030206 | 12 | 131 | 0.0 | 0.0 | 0.00 | 0.00 | 0.00 | 80 | 1007.3 |
| 20260509025702 | 12 | 129 | 0.0 | 1.6 | 0.00 | 0.00 | 0.00 | 80 | 1007.3 |
| 20260509025158 | 12 | 133 | 1.6 | 1.6 | 0.00 | 0.00 | 0.00 | 80 | 1007.2 |
| 20260509024653 | 12 | 134 | 3.2 | 3.2 | 0.00 | 0.00 | 0.00 | 80 | 1007.3 |
| 20260509024149 | 12 | 145 | 1.6 | 3.2 | 0.00 | 0.00 | 0.00 | 80 | 1007.5 |
| 20260509023648 | 12 | 129 | 3.2 | 3.2 | 0.00 | 0.00 | 0.00 | 80 | 1007.1 |
| 20260509023144 | 12 | 142 | 3.2 | 4.8 | 0.00 | 0.00 | 0.00 | 80 | 1007.3 |
| 20260509022640 | 12 | 137 | 3.2 | 4.8 | 0.00 | 0.00 | 0.00 | 80 | 1007.5 |
| 20260509022138 | 12 | 145 | 4.8 | 4.8 | 0.00 | 0.00 | 0.00 | 81 | 1007.5 |
| 20260509021635 | 12 | 128 | 1.6 | 3.2 | 0.00 | 0.00 | 0.00 | 79 | 1007.3 |
| 20260509021132 | 12 | 134 | 1.6 | 3.2 | 0.00 | 0.00 | 0.00 | 78 | 1007.4 |
| 20260509020630 | 12 | 135 | 1.6 | 1.6 | 0.00 | 0.00 | 0.00 | 77 | 1007.4 |
| 20260509020127 | 12 | 132 | 1.6 | 3.2 | 0.00 | 0.00 | 0.00 | 77 | 1007.5 |
| 20260509015626 | 12 | 132 | 1.6 | 1.6 | 0.00 | 0.00 | 0.00 | 76 | 1007.5 |
| 20260509015123 | 13 | 132 | 0.0 | 1.6 | 0.00 | 0.00 | 0.00 | 74 | 1007.5 |
| 20260509014619 | 13 | 132 | 1.6 | 1.6 | 0.00 | 0.00 | 0.00 | 73 | 1007.3 |
| 20260509014116 | 13 | 131 | 1.6 | 1.6 | 0.00 | 0.00 | 0.00 | 73 | 1007.4 |
| 20260509013613 | 13 | 132 | 1.6 | 1.6 | 0.00 | 0.00 | 0.00 | 72 | 1007.2 |
| 20260509013108 | 13 | 131 | 1.6 | 1.6 | 0.00 | 0.00 | 0.00 | 70 | 1007.0 |
| 20260509012605 | 13 | 132 | 1.6 | 1.6 | 0.00 | 0.00 | 0.00 | 69 | 1007.1 |
| 20260509012102 | 14 | 132 | 1.6 | 1.6 | 0.00 | 0.00 | 0.00 | 68 | 1006.9 |
| 20260509011600 | 14 | 132 | 1.6 | 1.6 | 0.00 | 0.00 | 0.00 | 67 | 1007.2 |
| 20260509011057 | 14 | 132 | 1.6 | 1.6 | 0.00 | 0.00 | 0.00 | 67 | 1006.8 |
| 20260509010555 | 15 | 132 | 1.6 | 1.6 | 0.00 | 0.00 | 0.00 | 67 | 1007.1 |
| 20260509010051 | 15 | 132 | 1.6 | 1.6 | 0.00 | 0.00 | 0.00 | 67 | 1006.9 |
| 20260509005549 | 15 | 131 | 1.6 | 1.6 | 0.00 | 0.00 | 0.00 | 67 | 1007.3 |
| 20260509005044 | 15 | 130 | 1.6 | 3.2 | 0.00 | 0.00 | 0.00 | 65 | 1006.9 |
| 20260509004541 | 15 | 132 | 1.6 | 1.6 | 0.00 | 0.00 | 0.00 | 65 | 1007.1 |
| 20260509004038 | 15 | 136 | 1.6 | 3.2 | 0.00 | 0.00 | 0.00 | 64 | 1007.2 |
| 20260509003536 | 15 | 135 | 1.6 | 1.6 | 0.00 | 0.00 | 0.00 | 64 | 1007.3 |
| 20260509003033 | 16 | 130 | 1.6 | 1.6 | 0.00 | 0.00 | 0.00 | 62 | 1007.1 |
| 20260509002531 | 16 | 129 | 1.6 | 1.6 | 0.00 | 0.00 | 0.00 | 57 | 1007.0 |
| 20260509002028 | 16 | 129 | 0.0 | 1.6 | 0.00 | 0.00 | 0.00 | 57 | 1007.2 |
| 20260509001525 | 16 | 129 | 0.0 | 0.0 | 0.00 | 0.00 | 0.00 | 57 | 1007.2 |
| 20260509001021 | 17 | 129 | 0.0 | 0.0 | 0.00 | 0.00 | 0.00 | 54 | 1007.2 |
| 20260509000520 | 17 | 123 | 0.0 | 0.0 | 0.00 | 0.00 | 0.00 | 56 | 1007.3 |
| 20260509000015 | 17 | 130 | 0.0 | 0.0 | 0.00 | 0.00 | 0.00 | 52 | 1007.1 |
| 20260508235514 | 18 | 132 | 1.6 | 1.6 | 0.00 | 0.00 | 0.00 | 51 | 1007.0 |
| 20260508235009 | 18 | 135 | 3.2 | 3.2 | 0.00 | 0.00 | 0.00 | 48 | 1007.2 |
| 20260508234507 | 18 | 138 | 3.2 | 3.2 | 0.00 | 0.00 | 0.00 | 44 | 1007.3 |
| 20260508234004 | 18 | 128 | 1.6 | 1.6 | 0.00 | 0.00 | 0.00 | 44 | 1007.2 |
| 20260508233503 | 19 | 129 | 0.0 | 0.0 | 0.00 | 0.00 | 0.00 | 45 | 1007.2 |
| 20260508233000 | 19 | 127 | 0.0 | 0.0 | 0.00 | 0.00 | 0.00 | 41 | 1007.1 |
| 20260508232457 | 20 | 136 | 4.8 | 4.8 | 0.00 | 0.00 | 0.00 | 41 | 1006.8 |
| 20260508231954 | 20 | 139 | 4.8 | 4.8 | 0.00 | 0.00 | 0.00 | 43 | 1006.7 |
| 20260508231451 | 20 | 131 | 4.8 | 8.0 | 0.00 | 0.00 | 0.00 | 39 | 1006.8 |
| 20260508230948 | 20 | 135 | 6.4 | 9.7 | 0.00 | 0.00 | 0.00 | 39 | 1006.9 |
| 20260508230444 | 20 | 136 | 8.0 | 9.7 | 0.00 | 0.00 | 0.00 | 39 | 1007.0 |
| 20260508225941 | 20 | 142 | 4.8 | 4.8 | 0.00 | 0.00 | 0.00 | 39 | 1007.1 |
| 20260508225438 | 20 | 126 | 8.0 | 12.9 | 0.00 | 0.00 | 0.00 | 39 | 1007.2 |
| 20260508224936 | 20 | 66 | 9.7 | 12.9 | 0.00 | 0.00 | 0.00 | 38 | 1007.4 |
| 20260508224433 | 21 | 104 | 8.0 | 9.7 | 0.00 | 0.00 | 0.00 | 38 | 1007.2 |
| 20260508223930 | 21 | 136 | 6.4 | 8.0 | 0.00 | 0.00 | 0.00 | 39 | 1007.5 |
| 20260508223428 | 21 | 133 | 6.4 | 11.3 | 0.00 | 0.00 | 0.00 | 40 | 1007.1 |
| 20260508222925 | 21 | 95 | 6.4 | 8.0 | 0.00 | 0.00 | 0.00 | 39 | 1007.3 |
| 20260508222423 | 21 | 139 | 1.6 | 3.2 | 0.00 | 0.00 | 0.00 | 38 | 1007.1 |
| 20260508221919 | 21 | 138 | 0.0 | 1.6 | 0.00 | 0.00 | 0.00 | 37 | 1007.1 |
| 20260508221415 | 21 | 146 | 6.4 | 8.0 | 0.00 | 0.00 | 0.00 | 41 | 1007.3 |
| 20260508220911 | 21 | 127 | 4.8 | 8.0 | 0.00 | 0.00 | 0.00 | 36 | 1007.1 |
| 20260508220408 | 21 | 114 | 6.4 | 8.0 | 0.00 | 0.00 | 0.00 | 37 | 1007.1 |
| 20260508215904 | 21 | 141 | 11.3 | 12.9 | 0.00 | 0.00 | 0.00 | 36 | 1007.0 |
| 20260508215401 | 21 | 151 | 6.4 | 8.0 | 0.00 | 0.00 | 0.00 | 36 | 1007.2 |
| 20260508214858 | 21 | 118 | 9.7 | 11.3 | 0.00 | 0.00 | 0.00 | 35 | 1007.3 |
| 20260508214355 | 21 | 137 | 0.0 | 0.0 | 0.00 | 0.00 | 0.00 | 39 | 1007.2 |
| 20260508213851 | 21 | 142 | 4.8 | 4.8 | 0.00 | 0.00 | 0.00 | 38 | 1007.1 |
| 20260508213349 | 22 | 137 | 9.7 | 11.3 | 0.00 | 0.00 | 0.00 | 36 | 1007.1 |
| 20260508212844 | 21 | 137 | 4.8 | 4.8 | 0.00 | 0.00 | 0.00 | 37 | 1007.3 |
| 20260508212341 | 22 | 138 | 8.0 | 11.3 | 0.00 | 0.00 | 0.00 | 39 | 1007.1 |
| 20260508211837 | 21 | 102 | 8.0 | 9.7 | 0.00 | 0.00 | 0.00 | 36 | 1007.2 |
| 20260508211332 | 21 | 125 | 11.3 | 12.9 | 0.00 | 0.00 | 0.00 | 37 | 1007.3 |
| 20260508210830 | 21 | 147 | 14.5 | 16.1 | 0.00 | 0.00 | 0.00 | 37 | 1007.4 |
| 20260508210327 | 21 | 136 | 8.0 | 9.7 | 0.00 | 0.00 | 0.00 | 38 | 1007.1 |
| 20260508205824 | 21 | 147 | 12.9 | 14.5 | 0.00 | 0.00 | 0.00 | 36 | 1007.4 |
| 20260508205320 | 21 | 121 | 8.0 | 11.3 | 0.00 | 0.00 | 0.00 | 35 | 1007.2 |
| 20260508204816 | 21 | 134 | 4.8 | 4.8 | 0.00 | 0.00 | 0.00 | 37 | 1007.7 |
| 20260508204314 | 21 | 125 | 16.1 | 22.5 | 0.00 | 0.00 | 0.00 | 35 | 1007.4 |
| 20260508203810 | 21 | 95 | 12.9 | 16.1 | 0.00 | 0.00 | 0.00 | 37 | 1007.9 |
| 20260508203306 | 21 | 128 | 6.4 | 8.0 | 0.00 | 0.00 | 0.00 | 42 | 1007.8 |
| 20260508202801 | 21 | 155 | 14.5 | 16.1 | 0.00 | 0.00 | 0.00 | 41 | 1007.6 |
| 20260508202259 | 21 | 121 | 9.7 | 12.9 | 0.00 | 0.00 | 0.00 | 40 | 1007.5 |
| 20260508201756 | 21 | 125 | 4.8 | 8.0 | 0.00 | 0.00 | 0.00 | 39 | 1007.7 |
| 20260508201253 | 21 | 139 | 6.4 | 9.7 | 0.00 | 0.00 | 0.00 | 38 | 1008.0 |
| 20260508200749 | 21 | 170 | 4.8 | 4.8 | 0.00 | 0.00 | 0.00 | 39 | 1007.7 |
| 20260508200246 | 21 | 123 | 11.3 | 16.1 | 0.00 | 0.00 | 0.00 | 42 | 1007.7 |
| 20260508195742 | 21 | 128 | 8.0 | 9.7 | 0.00 | 0.00 | 0.00 | 43 | 1007.6 |
| 20260508195239 | 21 | 134 | 4.8 | 4.8 | 0.00 | 0.00 | 0.00 | 42 | 1007.8 |
| 20260508194735 | 21 | 126 | 12.9 | 14.5 | 0.00 | 0.00 | 0.00 | 39 | 1008.3 |
| 20260508194232 | 21 | 133 | 8.0 | 9.7 | 0.00 | 0.00 | 0.00 | 40 | 1008.2 |
| 20260508193730 | 21 | 125 | 12.9 | 20.9 | 0.00 | 0.00 | 0.00 | 39 | 1008.3 |
| 20260508193226 | 21 | 126 | 9.7 | 11.3 | 0.00 | 0.00 | 0.00 | 43 | 1008.6 |
| 20260508192722 | 21 | 114 | 3.2 | 3.2 | 0.00 | 0.00 | 0.00 | 40 | 1008.9 |
| 20260508192220 | 21 | 135 | 8.0 | 11.3 | 0.00 | 0.00 | 0.00 | 43 | 1008.7 |
| 20260508191717 | 21 | 128 | 4.8 | 8.0 | 0.00 | 0.00 | 0.00 | 40 | 1008.7 |
| 20260508191214 | 21 | 241 | 6.4 | 9.7 | 0.00 | 0.00 | 0.00 | 44 | 1009.0 |
| 20260508190711 | 21 | 112 | 1.6 | 1.6 | 0.00 | 0.00 | 0.00 | 43 | 1009.1 |
| 20260508190207 | 21 | 126 | 6.4 | 8.0 | 0.00 | 0.00 | 0.00 | 40 | 1009.1 |
| 20260508185704 | 21 | 142 | 8.0 | 11.3 | 0.00 | 0.00 | 0.00 | 42 | 1009.3 |
| 20260508185201 | 21 | 108 | 6.4 | 8.0 | 0.00 | 0.00 | 0.00 | 41 | 1009.4 |
| 20260508184658 | 21 | 139 | 3.2 | 4.8 | 0.00 | 0.00 | 0.00 | 46 | 1009.4 |
| 20260508184155 | 21 | 116 | 1.6 | 1.6 | 0.00 | 0.00 | 0.00 | 41 | 1009.5 |
| 20260508183652 | 21 | 104 | 8.0 | 9.7 | 0.00 | 0.00 | 0.00 | 41 | 1009.8 |
| 20260508183148 | 20 | 121 | 8.0 | 11.3 | 0.00 | 0.00 | 0.00 | 40 | 1009.5 |
| 20260508182644 | 20 | 108 | 12.9 | 16.1 | 0.00 | 0.00 | 0.00 | 40 | 1009.9 |
| 20260508182141 | 21 | 71 | 4.8 | 8.0 | 0.00 | 0.00 | 0.00 | 41 | 1009.8 |
| 20260508181636 | 20 | 158 | 1.6 | 3.2 | 0.00 | 0.00 | 0.00 | 41 | 1010.0 |
| 20260508181134 | 20 | 110 | 8.0 | 11.3 | 0.00 | 0.00 | 0.00 | 40 | 1010.1 |
| 20260508180631 | 20 | 152 | 4.8 | 4.8 | 0.00 | 0.00 | 0.00 | 44 | 1010.2 |
| 20260508180127 | 20 | 135 | 9.7 | 12.9 | 0.00 | 0.00 | 0.00 | 45 | 1010.1 |
| 20260508175624 | 20 | 128 | 1.6 | 3.2 | 0.00 | 0.00 | 0.00 | 47 | 1010.5 |
| 20260508175121 | 20 | 128 | 3.2 | 4.8 | 0.00 | 0.00 | 0.00 | 40 | 1010.3 |
| 20260508174618 | 20 | 130 | 12.9 | 14.5 | 0.00 | 0.00 | 0.00 | 45 | 1010.6 |
| 20260508174115 | 21 | 207 | 6.4 | 8.0 | 0.00 | 0.00 | 0.00 | 49 | 1010.5 |
| 20260508173612 | 20 | 141 | 6.4 | 8.0 | 0.00 | 0.00 | 0.00 | 43 | 1010.7 |
| 20260508173108 | 21 | 145 | 3.2 | 3.2 | 0.00 | 0.00 | 0.00 | 47 | 1010.6 |
| 20260508172606 | 20 | 277 | 9.7 | 12.9 | 0.00 | 0.00 | 0.00 | 48 | 1010.8 |
| 20260508172102 | 20 | 244 | 4.8 | 4.8 | 0.00 | 0.00 | 0.00 | 42 | 1010.8 |
| 20260508171558 | 20 | 120 | 9.7 | 12.9 | 0.00 | 0.00 | 0.00 | 42 | 1011.2 |
| 20260508171055 | 20 | 114 | 4.8 | 4.8 | 0.00 | 0.00 | 0.00 | 44 | 1010.9 |
| 20260508170552 | 20 | 122 | 11.3 | 16.1 | 0.00 | 0.00 | 0.00 | 46 | 1011.2 |
| 20260508170049 | 20 | 159 | 3.2 | 3.2 | 0.00 | 0.00 | 0.00 | 45 | 1011.1 |
| 20260508165547 | 20 | 125 | 3.2 | 3.2 | 0.00 | 0.00 | 0.00 | 40 | 1011.4 |
| 20260508165043 | 19 | 189 | 9.7 | 12.9 | 0.00 | 0.00 | 0.00 | 48 | 1011.4 |
| 20260508164540 | 19 | 117 | 4.8 | 9.7 | 0.00 | 0.00 | 0.00 | 42 | 1011.6 |
| 20260508164037 | 19 | 91 | 4.8 | 8.0 | 0.00 | 0.00 | 0.00 | 41 | 1011.6 |
| 20260508163534 | 18 | 164 | 4.8 | 8.0 | 0.00 | 0.00 | 0.00 | 47 | 1011.7 |
| 20260508163031 | 19 | 114 | 14.5 | 17.7 | 0.00 | 0.00 | 0.00 | 42 | 1011.8 |
| 20260508162528 | 18 | 224 | 6.4 | 8.0 | 0.00 | 0.00 | 0.00 | 42 | 1011.7 |
| 20260508162025 | 18 | 177 | 6.4 | 9.7 | 0.00 | 0.00 | 0.00 | 48 | 1012.0 |
| 20260508161522 | 18 | 134 | 0.0 | 0.0 | 0.00 | 0.00 | 0.00 | 48 | 1012.0 |
| 20260508161019 | 18 | 145 | 6.4 | 8.0 | 0.00 | 0.00 | 0.00 | 47 | 1012.2 |
| 20260508160517 | 18 | 127 | 16.1 | 20.9 | 0.00 | 0.00 | 0.00 | 45 | 1012.2 |
| 20260508160014 | 18 | 118 | 0.0 | 0.0 | 0.00 | 0.00 | 0.00 | 47 | 1012.4 |
| 20260508155511 | 18 | 128 | 1.6 | 1.6 | 0.00 | 0.00 | 0.00 | 47 | 1012.4 |
| 20260508155008 | 18 | 126 | 6.4 | 9.7 | 0.00 | 0.00 | 0.00 | 46 | 1012.4 |
| 20260508154505 | 18 | 110 | 9.7 | 11.3 | 0.00 | 0.00 | 0.00 | 50 | 1012.6 |
| 20260508154002 | 18 | 124 | 1.6 | 4.8 | 0.00 | 0.00 | 0.00 | 46 | 1012.3 |
| 20260508153458 | 18 | 159 | 3.2 | 3.2 | 0.00 | 0.00 | 0.00 | 48 | 1012.6 |
| 20260508152955 | 17 | 357 | 4.8 | 11.3 | 0.00 | 0.00 | 0.00 | 47 | 1012.4 |
| 20260508152452 | 17 | 122 | 6.4 | 8.0 | 0.00 | 0.00 | 0.00 | 46 | 1012.4 |
| 20260508151948 | 17 | 304 | 6.4 | 9.7 | 0.00 | 0.00 | 0.00 | 45 | 1012.3 |
| 20260508151444 | 17 | 338 | 8.0 | 11.3 | 0.00 | 0.00 | 0.00 | 46 | 1012.5 |
| 20260508150941 | 17 | 123 | 4.8 | 4.8 | 0.00 | 0.00 | 0.00 | 45 | 1012.3 |
| 20260508150438 | 17 | 113 | 8.0 | 9.7 | 0.00 | 0.00 | 0.00 | 45 | 1012.5 |
| 20260508145933 | 17 | 130 | 8.0 | 9.7 | 0.00 | 0.00 | 0.00 | 48 | 1012.7 |
| 20260508145431 | 16 | 106 | 3.2 | 3.2 | 0.00 | 0.00 | 0.00 | 51 | 1012.6 |
| 20260508144927 | 16 | 146 | 0.0 | 1.6 | 0.00 | 0.00 | 0.00 | 51 | 1012.5 |
| 20260508144425 | 16 | 124 | 4.8 | 4.8 | 0.00 | 0.00 | 0.00 | 49 | 1012.7 |
| 20260508143922 | 16 | 141 | 8.0 | 9.7 | 0.00 | 0.00 | 0.00 | 50 | 1012.3 |
| 20260508143420 | 16 | 136 | 0.0 | 0.0 | 0.00 | 0.00 | 0.00 | 54 | 1012.8 |
| 20260508142916 | 16 | 124 | 3.2 | 3.2 | 0.00 | 0.00 | 0.00 | 53 | 1012.4 |
| 20260508142413 | 15 | 130 | 8.0 | 9.7 | 0.00 | 0.00 | 0.00 | 57 | 1012.4 |
| 20260508141909 | 15 | 148 | 1.6 | 3.2 | 0.00 | 0.00 | 0.00 | 59 | 1012.5 |
| 20260508141406 | 15 | 109 | 0.0 | 1.6 | 0.00 | 0.00 | 0.00 | 58 | 1012.6 |
| 20260508140904 | 14 | 114 | 8.0 | 9.7 | 0.00 | 0.00 | 0.00 | 58 | 1012.7 |
| 20260508140401 | 14 | 122 | 6.4 | 11.3 | 0.00 | 0.00 | 0.00 | 59 | 1012.6 |
| 20260508135856 | 13 | 71 | 9.7 | 11.3 | 0.00 | 0.00 | 0.00 | 59 | 1012.6 |
| 20260508135353 | 13 | 121 | 8.0 | 9.7 | 0.00 | 0.00 | 0.00 | 61 | 1012.6 |
| 20260508134849 | 13 | 120 | 11.3 | 12.9 | 0.00 | 0.00 | 0.00 | 60 | 1012.7 |
| 20260508134346 | 13 | 103 | 8.0 | 12.9 | 0.00 | 0.00 | 0.00 | 64 | 1012.6 |
| 20260508133843 | 12 | 135 | 1.6 | 1.6 | 0.00 | 0.00 | 0.00 | 65 | 1012.6 |
| 20260508133341 | 12 | 133 | 4.8 | 4.8 | 0.00 | 0.00 | 0.00 | 69 | 1012.7 |
| 20260508132837 | 12 | 109 | 3.2 | 3.2 | 0.00 | 0.00 | 0.00 | 75 | 1012.7 |
| 20260508132335 | 11 | 131 | 1.6 | 1.6 | 0.00 | 0.00 | 0.00 | 76 | 1012.9 |
| 20260508131832 | 11 | 120 | 0.0 | 0.0 | 0.00 | 0.00 | 0.00 | 83 | 1012.7 |
| 20260508131327 | 11 | 109 | 3.2 | 3.2 | 0.00 | 0.00 | 0.00 | 81 | 1012.9 |
| 20260508130824 | 10 | 117 | 0.0 | 0.0 | 0.00 | 0.00 | 0.00 | 86 | 1012.9 |
| 20260508130321 | 9 | 119 | 1.6 | 3.2 | 0.00 | 0.00 | 0.00 | 85 | 1012.9 |
| 20260508125817 | 8 | 121 | 3.2 | 3.2 | 0.00 | 0.00 | 0.00 | 88 | 1012.8 |
| 20260508125314 | 7 | 126 | 0.0 | 0.0 | 0.00 | 0.00 | 0.00 | 98 | 1012.7 |
| 20260508124812 | 6 | 125 | 0.0 | 1.6 | 0.00 | 0.00 | 0.00 | 99 | 1012.7 |
| 20260508124308 | 5 | 125 | 0.0 | 0.0 | 0.00 | 0.00 | 0.00 | 99 | 1012.8 |
| 20260508123807 | 5 | 127 | 0.0 | 0.0 | 0.00 | 0.00 | 0.00 | 99 | 1012.8 |
| 20260508123305 | 5 | 123 | 0.0 | 0.0 | 0.00 | 0.00 | 0.00 | 99 | 1013.0 |
| 20260508122801 | 4 | 126 | 0.0 | 0.0 | 0.00 | 0.00 | 0.00 | 99 | 1012.9 |
| 20260508122258 | 3 | 126 | 0.0 | 0.0 | 0.00 | 0.00 | 0.00 | 99 | 1012.7 |
| 20260508121755 | 3 | 126 | 0.0 | 0.0 | 0.00 | 0.00 | 0.00 | 99 | 1012.8 |
| 20260508121253 | 3 | 126 | 0.0 | 0.0 | 0.00 | 0.00 | 0.00 | 99 | 1012.9 |
| 20260508120750 | 2 | 126 | 0.0 | 0.0 | 0.00 | 0.00 | 0.00 | 99 | 1012.8 |
| 20260508120248 | 2 | 129 | 0.0 | 0.0 | 0.00 | 0.00 | 0.00 | 99 | 1012.7 |
| 20260508115746 | 2 | 129 | 0.0 | 0.0 | 0.00 | 0.00 | 0.00 | 99 | 1012.6 |
| 20260508115243 | 2 | 129 | 0.0 | 0.0 | 0.00 | 0.00 | 0.00 | 99 | 1012.8 |
| 20260508114739 | 1 | 130 | 0.0 | 0.0 | 0.00 | 0.00 | 0.00 | 99 | 1012.8 |
| 20260508114236 | 1 | 129 | 0.0 | 0.0 | 0.00 | 0.00 | 0.00 | 99 | 1012.9 |
| 20260508113732 | 1 | 129 | 0.0 | 0.0 | 0.00 | 0.00 | 0.00 | 99 | 1012.8 |
| 20260508113231 | 1 | 129 | 0.0 | 0.0 | 0.00 | 0.00 | 0.00 | 99 | 1012.8 |
| 20260508112721 | 1 | 129 | 0.0 | 0.0 | 0.00 | 0.00 | 0.00 | 99 | 1012.6 |
| 20260508112218 | 1 | 129 | 0.0 | 0.0 | 0.00 | 0.00 | 0.00 | 99 | 1012.8 |
| 20260508111715 | 1 | 129 | 0.0 | 0.0 | 0.00 | 0.00 | 0.00 | 99 | 1012.6 |
| 20260508111213 | 1 | 129 | 0.0 | 0.0 | 0.00 | 0.00 | 0.00 | 99 | 1012.7 |
| 20260508110709 | 0 | 129 | 0.0 | 0.0 | 0.00 | 0.00 | 0.00 | 99 | 1012.6 |
| 20260508110206 | 0 | 129 | 0.0 | 0.0 | 0.00 | 0.00 | 0.00 | 99 | 1012.4 |
| 20260508105700 | 0 | 128 | 0.0 | 0.0 | 0.00 | 0.00 | 0.00 | 99 | 1012.6 |
| 20260508105158 | 0 | 128 | 0.0 | 0.0 | 0.00 | 0.00 | 0.00 | 99 | 1012.4 |
| 20260508104655 | 0 | 128 | 0.0 | 0.0 | 0.00 | 0.00 | 0.00 | 99 | 1012.2 |
| 20260508104152 | 0 | 129 | 0.0 | 0.0 | 0.00 | 0.00 | 0.00 | 99 | 1012.4 |
| 20260508103649 | 0 | 128 | 0.0 | 0.0 | 0.00 | 0.00 | 0.00 | 99 | 1012.4 |
| 20260508103146 | 0 | 129 | 0.0 | 0.0 | 0.00 | 0.00 | 0.00 | 99 | 1012.5 |
| 20260508102643 | 0 | 129 | 0.0 | 0.0 | 0.00 | 0.00 | 0.00 | 99 | 1012.2 |
| 20260508102141 | 1 | 129 | 0.0 | 0.0 | 0.00 | 0.00 | 0.00 | 99 | 1012.2 |
| 20260508101638 | 0 | 128 | 0.0 | 0.0 | 0.00 | 0.00 | 0.00 | 99 | 1012.1 |
| 20260508101136 | 1 | 132 | 0.0 | 0.0 | 0.00 | 0.00 | 0.00 | 99 | 1012.0 |
| 20260508100633 | 1 | 132 | 0.0 | 0.0 | 0.00 | 0.00 | 0.00 | 99 | 1011.8 |
| 20260508100131 | 1 | 132 | 0.0 | 0.0 | 0.00 | 0.00 | 0.00 | 99 | 1012.0 |
| 20260508095627 | 1 | 132 | 0.0 | 0.0 | 0.00 | 0.00 | 0.00 | 99 | 1012.0 |
| 20260508095125 | 1 | 132 | 0.0 | 0.0 | 0.00 | 0.00 | 0.00 | 99 | 1011.8 |
| 20260508094621 | 1 | 132 | 0.0 | 0.0 | 0.00 | 0.00 | 0.00 | 99 | 1011.9 |
| 20260508094118 | 1 | 132 | 0.0 | 0.0 | 0.00 | 0.00 | 0.00 | 99 | 1012.0 |
| 20260508093615 | 1 | 132 | 0.0 | 0.0 | 0.00 | 0.00 | 0.00 | 99 | 1012.0 |
| 20260508093113 | 1 | 131 | 0.0 | 0.0 | 0.00 | 0.00 | 0.00 | 99 | 1011.9 |
| 20260508092610 | 1 | 131 | 0.0 | 0.0 | 0.00 | 0.00 | 0.00 | 99 | 1011.9 |
| 20260508092109 | 1 | 132 | 0.0 | 0.0 | 0.00 | 0.00 | 0.00 | 99 | 1011.9 |
| 20260508091605 | 1 | 131 | 0.0 | 0.0 | 0.00 | 0.00 | 0.00 | 99 | 1011.9 |
| 20260508091102 | 1 | 131 | 0.0 | 0.0 | 0.00 | 0.00 | 0.00 | 99 | 1011.9 |
| 20260508090600 | 1 | 131 | 0.0 | 0.0 | 0.00 | 0.00 | 0.00 | 99 | 1011.6 |
| 20260508090056 | 1 | 132 | 0.0 | 0.0 | 0.00 | 0.00 | 0.00 | 99 | 1011.8 |
| 20260508085553 | 1 | 132 | 0.0 | 0.0 | 0.00 | 0.00 | 0.00 | 99 | 1011.7 |
| 20260508085051 | 1 | 132 | 0.0 | 0.0 | 0.00 | 0.00 | 0.00 | 99 | 1011.9 |
| 20260508084547 | 1 | 131 | 0.0 | 0.0 | 0.00 | 0.00 | 0.00 | 99 | 1011.9 |
| 20260508084044 | 1 | 132 | 0.0 | 0.0 | 0.00 | 0.00 | 0.00 | 99 | 1011.8 |
| 20260508083541 | 1 | 132 | 0.0 | 0.0 | 0.00 | 0.00 | 0.00 | 99 | 1011.7 |
| 20260508083038 | 1 | 132 | 0.0 | 0.0 | 0.00 | 0.00 | 0.00 | 99 | 1011.8 |
| 20260508082534 | 1 | 132 | 0.0 | 0.0 | 0.00 | 0.00 | 0.00 | 99 | 1011.8 |
| 20260508082032 | 1 | 132 | 0.0 | 0.0 | 0.00 | 0.00 | 0.00 | 99 | 1011.7 |
| 20260508081529 | 1 | 131 | 0.0 | 0.0 | 0.00 | 0.00 | 0.00 | 99 | 1011.8 |
| 20260508081025 | 1 | 131 | 0.0 | 0.0 | 0.00 | 0.00 | 0.00 | 99 | 1011.7 |
| 20260508080523 | 1 | 131 | 0.0 | 0.0 | 0.00 | 0.00 | 0.00 | 99 | 1011.7 |
| 20260508080020 | 1 | 131 | 0.0 | 0.0 | 0.00 | 0.00 | 0.00 | 99 | 1011.8 |
| 20260508075516 | 1 | 132 | 0.0 | 0.0 | 0.00 | 0.00 | 0.00 | 99 | 1011.7 |
| 20260508075014 | 1 | 131 | 0.0 | 0.0 | 0.00 | 0.00 | 0.00 | 99 | 1011.7 |
| 20260508074512 | 1 | 132 | 0.0 | 0.0 | 0.00 | 0.00 | 0.00 | 99 | 1011.8 |
| 20260508074008 | 2 | 129 | 0.0 | 0.0 | 0.00 | 0.00 | 0.00 | 99 | 1011.7 |
| 20260508073506 | 1 | 128 | 0.0 | 0.0 | 0.00 | 0.00 | 0.00 | 99 | 1011.7 |
| 20260508073003 | 1 | 128 | 0.0 | 0.0 | 0.00 | 0.00 | 0.00 | 99 | 1011.7 |
| 20260508072459 | 1 | 128 | 0.0 | 0.0 | 0.00 | 0.00 | 0.00 | 99 | 1011.6 |
| 20260508071956 | 2 | 128 | 0.0 | 0.0 | 0.00 | 0.00 | 0.00 | 99 | 1011.7 |
| 20260508071454 | 2 | 128 | 0.0 | 0.0 | 0.00 | 0.00 | 0.00 | 99 | 1011.7 |
| 20260508070951 | 2 | 128 | 0.0 | 0.0 | 0.00 | 0.00 | 0.00 | 99 | 1011.6 |
| 20260508070449 | 2 | 133 | 0.0 | 0.0 | 0.00 | 0.00 | 0.00 | 99 | 1011.5 |
| 20260508065947 | 2 | 136 | 3.2 | 3.2 | 0.00 | 0.00 | 0.00 | 99 | 1011.6 |
| 20260508065445 | 2 | 141 | 1.6 | 3.2 | 0.00 | 0.00 | 0.00 | 99 | 1011.4 |
| 20260508064943 | 2 | 129 | 0.0 | 1.6 | 0.00 | 0.00 | 0.00 | 99 | 1011.5 |
| 20260508064440 | 2 | 131 | 0.0 | 0.0 | 0.00 | 0.00 | 0.00 | 99 | 1011.6 |
| 20260508063937 | 2 | 132 | 0.0 | 0.0 | 0.00 | 0.00 | 0.00 | 99 | 1011.7 |
| 20260508063435 | 2 | 133 | 3.2 | 3.2 | 0.00 | 0.00 | 0.00 | 99 | 1011.6 |
| 20260508062932 | 2 | 131 | 0.0 | 0.0 | 0.00 | 0.00 | 0.00 | 99 | 1011.8 |
| 20260508062430 | 2 | 131 | 0.0 | 0.0 | 0.00 | 0.00 | 0.00 | 99 | 1011.9 |
| 20260508061927 | 2 | 131 | 0.0 | 0.0 | 0.00 | 0.00 | 0.00 | 99 | 1011.7 |
| 20260508061424 | 2 | 131 | 1.6 | 1.6 | 0.00 | 0.00 | 0.00 | 99 | 1011.7 |
| 20260508060920 | 2 | 161 | 3.2 | 3.2 | 0.00 | 0.00 | 0.00 | 99 | 1012.0 |
| 20260508060418 | 2 | 142 | 3.2 | 3.2 | 0.00 | 0.00 | 0.00 | 99 | 1011.6 |
| 20260508055913 | 2 | 135 | 0.0 | 0.0 | 0.00 | 0.00 | 0.00 | 98 | 1011.8 |
| 20260508055410 | 2 | 132 | 0.0 | 0.0 | 0.00 | 0.00 | 0.00 | 98 | 1011.8 |
| 20260508054907 | 2 | 135 | 0.0 | 0.0 | 0.00 | 0.00 | 0.00 | 98 | 1012.0 |
| 20260508054404 | 3 | 133 | 0.0 | 0.0 | 0.00 | 0.00 | 0.00 | 98 | 1011.9 |
| 20260508053901 | 2 | 132 | 0.0 | 0.0 | 0.00 | 0.00 | 0.00 | 98 | 1011.9 |
| 20260508053358 | 3 | 134 | 0.0 | 0.0 | 0.00 | 0.00 | 0.00 | 97 | 1012.0 |
| 20260508052856 | 3 | 133 | 0.0 | 0.0 | 0.00 | 0.00 | 0.00 | 97 | 1011.6 |
| 20260508052353 | 3 | 132 | 0.0 | 0.0 | 0.00 | 0.00 | 0.00 | 97 | 1011.7 |
| 20260508051849 | 3 | 132 | 0.0 | 0.0 | 0.00 | 0.00 | 0.00 | 97 | 1011.7 |
| 20260508051345 | 3 | 131 | 0.0 | 0.0 | 0.00 | 0.00 | 0.00 | 97 | 1011.7 |
| 20260508050841 | 3 | 131 | 0.0 | 0.0 | 0.00 | 0.00 | 0.00 | 97 | 1011.7 |
| 20260508050338 | 3 | 132 | 0.0 | 0.0 | 0.00 | 0.00 | 0.00 | 98 | 1011.7 |
| 20260508045834 | 3 | 133 | 0.0 | 1.6 | 0.00 | 0.00 | 0.00 | 98 | 1011.7 |
| 20260508045332 | 3 | 136 | 1.6 | 1.6 | 0.00 | 0.00 | 0.00 | 98 | 1011.9 |
| 20260508044829 | 3 | 135 | 1.6 | 3.2 | 0.00 | 0.00 | 0.00 | 97 | 1012.0 |
| 20260508044325 | 3 | 133 | 1.6 | 1.6 | 0.00 | 0.00 | 0.00 | 97 | 1011.8 |
| 20260508043822 | 3 | 132 | 0.0 | 0.0 | 0.00 | 0.00 | 0.00 | 97 | 1011.9 |
| 20260508043319 | 3 | 134 | 1.6 | 1.6 | 0.00 | 0.00 | 0.00 | 97 | 1011.9 |
| 20260508042816 | 3 | 136 | 1.6 | 3.2 | 0.00 | 0.00 | 0.00 | 97 | 1011.9 |
| 20260508042314 | 3 | 135 | 0.0 | 0.0 | 0.00 | 0.00 | 0.00 | 96 | 1011.7 |
| 20260508041810 | 4 | 134 | 1.6 | 1.6 | 0.00 | 0.00 | 0.00 | 96 | 1011.8 |
| 20260508041306 | 4 | 138 | 3.2 | 3.2 | 0.00 | 0.00 | 0.00 | 96 | 1011.9 |
| 20260508040803 | 4 | 136 | 1.6 | 3.2 | 0.00 | 0.00 | 0.00 | 96 | 1011.8 |
| 20260508040301 | 4 | 136 | 1.6 | 3.2 | 0.00 | 0.00 | 0.00 | 96 | 1011.6 |
| 20260508035758 | 4 | 144 | 4.8 | 4.8 | 0.00 | 0.00 | 0.00 | 96 | 1011.8 |
| 20260508035255 | 4 | 136 | 3.2 | 3.2 | 0.00 | 0.00 | 0.00 | 95 | 1011.6 |